Tracking 29892 objects as of 21-Nov-2024
HD Live streaming from Space Station
objects crossing your sky now

STARLINK-30357

Track STARLINK-30357 now!
10-day predictions
STARLINK-30357 is classified as:


NORAD ID: 57750
Int'l Code: 2023-131U
Perigee: 565.6 km
Apogee: 566.8 km
Inclination: 43.0 °
Period: 95.8 minutes
Semi major axis: 6937 km
RCS: Unknown
Launch date: September 1, 2023
Source: United States (US)
Launch site: AIR FORCE EASTERN TEST RANGE (AFETR)
Your satellite tracking list
Your tracking list is empty




NASA's NSSDC Master Catalog

Two Line Element Set (TLE):
1 57750U 23131U   24326.07391146 -.00000525  00000-0 -23787-4 0  9997
2 57750  43.0022 224.9799 0000828 292.8839  67.1916 15.02534624 68576
Source of the keplerian elements: AFSPC